Time,TemperatureF,DewpointF,PressureIn,WindDirection,WindDirectionDegrees,WindSpeedMPH,WindSpeedGustMPH,Humidity,HourlyPrecipIn,Conditions,Clouds,dailyrainin,SoftwareType,DateUTC
2013-09-06 00:12:00,75.0,64.0,30.09,ESE,109,1.0,5.0,68,0.00,,,0.00,,2013-09-06 00:12:00,
2013-09-06 00:22:00,74.0,63.0,30.09,East,88,0.0,5.0,69,0.00,,,0.00,,2013-09-06 00:22:00,
2013-09-06 00:42:00,73.0,63.0,30.09,East,82,1.0,4.0,71,0.00,,,0.00,,2013-09-06 00:42:00,
2013-09-06 00:52:00,72.0,63.0,30.09,East,82,0.0,3.0,73,0.00,,,0.00,,2013-09-06 00:52:00,
2013-09-06 01:11:00,72.0,63.0,30.09,East,82,0.0,2.0,73,0.00,,,0.00,,2013-09-06 01:11:00,
2013-09-06 01:22:00,71.0,62.0,30.09,East,82,0.0,2.0,74,0.00,,,0.00,,2013-09-06 01:22:00,
2013-09-06 01:42:00,70.0,62.0,30.10,East,92,0.0,4.0,75,0.00,,,0.00,,2013-09-06 01:42:00,
2013-09-06 01:52:00,70.0,62.0,30.11,East,92,0.0,2.0,75,0.00,,,0.00,,2013-09-06 01:52:00,
2013-09-06 02:11:00,69.0,61.0,30.11,East,89,0.0,4.0,76,0.00,,,0.00,,2013-09-06 02:11:00,
2013-09-06 02:22:00,69.0,61.0,30.11,East,92,1.0,5.0,76,0.00,,,0.00,,2013-09-06 02:22:00,
2013-09-06 02:42:00,68.0,60.0,30.11,ENE,72,1.0,5.0,75,0.00,,,0.00,,2013-09-06 02:42:00,
2013-09-06 02:52:00,68.0,59.0,30.12,East,88,0.0,5.0,72,0.00,,,0.00,,2013-09-06 02:52:00,
2013-09-06 03:22:00,67.0,57.0,30.12,East,86,6.0,6.0,71,0.00,,,0.00,,2013-09-06 03:22:00,
2013-09-06 03:55:00,66.0,56.0,30.13,East,92,4.0,6.0,70,0.00,,,0.00,,2013-09-06 03:55:00,
2013-09-06 04:14:00,66.0,56.0,30.13,East,88,1.0,5.0,70,0.00,,,0.00,,2013-09-06 04:14:00,
2013-09-06 04:23:00,65.0,55.0,30.13,East,84,3.0,7.0,69,0.00,,,0.00,,2013-09-06 04:23:00,
2013-09-06 04:54:00,64.0,54.0,30.13,East,92,0.0,5.0,69,0.00,,,0.00,,2013-09-06 04:54:00,
2013-09-06 05:12:00,63.0,53.0,30.12,East,86,1.0,5.0,70,0.00,,,0.00,,2013-09-06 05:12:00,
2013-09-06 05:23:00,63.0,53.0,30.13,East,85,1.0,4.0,70,0.00,,,0.00,,2013-09-06 05:23:00,
2013-09-06 05:52:00,62.0,52.0,30.13,East,83,0.0,3.0,71,0.00,,,0.00,,2013-09-06 05:52:00,
2013-09-06 06:11:00,62.0,53.0,30.13,East,86,0.0,2.0,72,0.00,,,0.00,,2013-09-06 06:11:00,
2013-09-06 06:22:00,62.0,54.0,30.13,East,86,0.0,3.0,74,0.00,,,0.00,,2013-09-06 06:22:00,
2013-09-06 06:53:00,61.0,53.0,30.12,East,91,0.0,4.0,75,0.00,,,0.00,,2013-09-06 06:53:00,
2013-09-06 07:12:00,61.0,53.0,30.12,East,94,0.0,1.0,76,0.00,,,0.00,,2013-09-06 07:12:00,
2013-09-06 07:23:00,61.0,53.0,30.12,East,94,0.0,0.0,76,0.00,,,0.00,,2013-09-06 07:23:00,
2013-09-06 07:42:00,61.0,54.0,30.12,East,94,0.0,1.0,77,0.00,,,0.00,,2013-09-06 07:42:00,
2013-09-06 07:52:00,60.0,53.0,30.12,East,94,0.0,1.0,78,0.00,,,0.00,,2013-09-06 07:52:00,
2013-09-06 08:12:00,60.0,53.0,30.11,East,94,0.0,0.0,79,0.00,,,0.00,,2013-09-06 08:12:00,
2013-09-06 08:22:00,60.0,53.0,30.11,East,94,0.0,1.0,79,0.00,,,0.00,,2013-09-06 08:22:00,
2013-09-06 08:42:00,60.0,54.0,30.12,East,94,0.0,2.0,80,0.00,,,0.00,,2013-09-06 08:42:00,
2013-09-06 08:52:00,60.0,54.0,30.12,East,94,0.0,0.0,81,0.00,,,0.00,,2013-09-06 08:52:00,
2013-09-06 09:11:00,59.0,53.0,30.12,East,94,0.0,1.0,81,0.00,,,0.00,,2013-09-06 09:11:00,
2013-09-06 09:22:00,59.0,54.0,30.11,East,94,0.0,1.0,82,0.00,,,0.00,,2013-09-06 09:22:00,
2013-09-06 09:53:00,59.0,54.0,30.11,East,94,0.0,1.0,82,0.00,,,0.00,,2013-09-06 09:53:00,
2013-09-06 10:12:00,59.0,54.0,30.11,East,94,0.0,0.0,83,0.00,,,0.00,,2013-09-06 10:12:00,
2013-09-06 10:23:00,59.0,54.0,30.12,East,94,0.0,1.0,83,0.00,,,0.00,,2013-09-06 10:23:00,
2013-09-06 10:43:00,60.0,55.0,30.12,East,94,0.0,1.0,83,0.00,,,0.00,,2013-09-06 10:43:00,
2013-09-06 10:53:00,60.0,55.0,30.12,East,94,0.0,1.0,83,0.00,,,0.00,,2013-09-06 10:53:00,
2013-09-06 11:12:00,59.0,54.0,30.11,East,94,0.0,0.0,84,0.00,,,0.00,,2013-09-06 11:12:00,
2013-09-06 11:22:00,59.0,54.0,30.11,East,94,0.0,1.0,85,0.00,,,0.00,,2013-09-06 11:22:00,
2013-09-06 11:52:00,59.0,55.0,30.11,East,94,0.0,2.0,86,0.00,,,0.00,,2013-09-06 11:52:00,
2013-09-06 12:12:00,59.0,55.0,30.12,East,94,0.0,0.0,86,0.00,,,0.00,,2013-09-06 12:12:00,
2013-09-06 12:21:00,59.0,55.0,30.12,East,94,0.0,0.0,86,0.00,,,0.00,,2013-09-06 12:21:00,
2013-09-06 12:42:00,60.0,56.0,30.12,East,94,0.0,1.0,86,0.00,,,0.00,,2013-09-06 12:42:00,
2013-09-06 12:52:00,60.0,56.0,30.11,East,94,0.0,0.0,86,0.00,,,0.00,,2013-09-06 12:52:00,
2013-09-06 13:11:00,60.0,56.0,30.11,East,94,0.0,0.0,86,0.00,,,0.00,,2013-09-06 13:11:00,
2013-09-06 13:22:00,62.0,57.0,30.11,East,94,0.0,1.0,85,0.00,,,0.00,,2013-09-06 13:22:00,
2013-09-06 13:42:00,63.0,57.0,30.11,East,94,0.0,1.0,82,0.00,,,0.00,,2013-09-06 13:42:00,
2013-09-06 13:52:00,65.0,57.0,30.10,SE,131,2.0,5.0,76,0.00,,,0.00,,2013-09-06 13:52:00,
2013-09-06 14:11:00,67.0,59.0,30.10,SE,131,0.0,4.0,75,0.00,,,0.00,,2013-09-06 14:11:00,
2013-09-06 14:22:00,68.0,59.0,30.10,SE,131,1.0,5.0,73,0.00,,,0.00,,2013-09-06 14:22:00,
2013-09-06 14:52:00,71.0,60.0,30.10,SE,142,4.0,7.0,69,0.00,,,0.00,,2013-09-06 14:52:00,
2013-09-06 15:11:00,72.0,62.0,30.10,SE,136,0.0,8.0,71,0.00,,,0.00,,2013-09-06 15:11:00,
2013-09-06 15:22:00,73.0,61.0,30.10,SE,140,5.0,7.0,67,0.00,,,0.00,,2013-09-06 15:22:00,
2013-09-06 15:43:00,74.0,63.0,30.10,SE,144,2.0,6.0,68,0.00,,,0.00,,2013-09-06 15:43:00,
2013-09-06 15:53:00,74.0,63.0,30.10,SE,144,2.0,6.0,68,0.00,,,0.00,,2013-09-06 15:53:00,
2013-09-06 16:13:00,77.0,63.0,30.09,SSE,159,0.0,7.0,63,0.00,,,0.00,,2013-09-06 16:13:00,
2013-09-06 16:24:00,78.0,64.0,30.09,SSW,213,4.0,7.0,62,0.00,,,0.00,,2013-09-06 16:24:00,
2013-09-06 16:42:00,79.0,65.0,30.09,SSW,207,2.0,7.0,62,0.00,,,0.00,,2013-09-06 16:42:00,
2013-09-06 16:53:00,80.0,64.0,30.09,SW,216,3.0,5.0,59,0.00,,,0.00,,2013-09-06 16:53:00,
2013-09-06 17:03:00,80.0,64.0,30.09,SW,216,3.0,5.0,59,0.00,,,0.00,,2013-09-06 17:03:00,
2013-09-06 17:13:00,80.0,64.0,30.09,SW,216,3.0,5.0,59,0.00,,,0.00,,2013-09-06 17:13:00,
2013-09-06 17:24:00,83.0,65.0,30.07,ESE,123,5.0,6.0,55,0.00,,,0.00,,2013-09-06 17:24:00,
2013-09-06 17:43:00,84.0,64.0,30.07,WSW,250,4.0,7.0,52,0.00,,,0.00,,2013-09-06 17:43:00,
2013-09-06 17:53:00,85.0,64.0,30.07,SW,230,6.0,9.0,50,0.00,,,0.00,,2013-09-06 17:53:00,
2013-09-06 18:12:00,86.0,65.0,30.06,SSE,149,0.0,9.0,49,0.00,,,0.00,,2013-09-06 18:12:00,
2013-09-06 18:22:00,86.0,65.0,30.05,West,259,1.0,6.0,50,0.00,,,0.00,,2013-09-06 18:22:00,
2013-09-06 18:42:00,88.0,67.0,30.05,South,191,0.0,13.0,50,0.00,,,0.00,,2013-09-06 18:42:00,
2013-09-06 18:52:00,88.0,66.0,30.04,SW,221,1.0,11.0,49,0.00,,,0.00,,2013-09-06 18:52:00,
2013-09-06 19:12:00,89.0,67.0,30.03,SE,146,11.0,11.0,49,0.00,,,0.00,,2013-09-06 19:12:00,
2013-09-06 19:22:00,89.0,67.0,30.03,SE,146,11.0,11.0,49,0.00,,,0.00,,2013-09-06 19:22:00,
2013-09-06 19:43:00,89.0,67.0,30.02,SSW,213,4.0,8.0,49,0.00,,,0.00,,2013-09-06 19:43:00,
2013-09-06 19:52:00,88.0,68.0,30.01,SE,146,5.0,15.0,51,0.00,,,0.00,,2013-09-06 19:52:00,
2013-09-06 20:12:00,89.0,67.0,30.00,SE,145,1.0,11.0,49,0.00,,,0.00,,2013-09-06 20:12:00,
2013-09-06 20:23:00,89.0,67.0,30.00,SSE,148,10.0,11.0,49,0.00,,,0.00,,2013-09-06 20:23:00,
2013-09-06 20:52:00,88.0,67.0,29.99,SSE,151,8.0,11.0,50,0.00,,,0.00,,2013-09-06 20:52:00,
2013-09-06 21:22:00,88.0,66.0,29.98,South,185,0.0,11.0,49,0.00,,,0.00,,2013-09-06 21:22:00,
2013-09-06 21:54:00,88.0,66.0,29.98,SW,227,9.0,9.0,48,0.00,,,0.00,,2013-09-06 21:54:00,
2013-09-06 22:04:00,88.0,66.0,29.98,SW,227,9.0,9.0,48,0.00,,,0.00,,2013-09-06 22:04:00,
2013-09-06 22:13:00,88.0,66.0,29.98,SW,227,9.0,9.0,48,0.00,,,0.00,,2013-09-06 22:13:00,
2013-09-06 22:23:00,88.0,65.0,29.96,SW,216,8.0,11.0,47,0.00,,,0.00,,2013-09-06 22:23:00,
2013-09-06 22:54:00,87.0,65.0,29.95,SSE,149,4.0,9.0,48,0.00,,,0.00,,2013-09-06 22:54:00,
2013-09-06 23:12:00,87.0,66.0,29.95,SSE,154,0.0,9.0,50,0.00,,,0.00,,2013-09-06 23:12:00,
2013-09-06 23:23:00,86.0,65.0,29.95,SSW,198,0.0,6.0,50,0.00,,,0.00,,2013-09-06 23:23:00,
2013-09-06 23:52:00,84.0,64.0,29.94,SSW,196,1.0,7.0,52,0.00,,,0.00,,2013-09-06 23:52:00,